Find Starlink 2111

NORAD ID: 47390 Int'l Des: 2021-005 Owner: SPXS Country: US Constellation: starlink operational
LEOCIRCULARSTARLINK_TYPE

Live Position

Loading 3D Globe...

About Starlink 2111

Description loading...

Upcoming Passes

Passes for default location (London). Set your location on the main map for personalized predictions.

Altitude History

Loading altitude history...

Two-Line Element Set

1 47390U 21005AT 26107.33336806 .00110929 00000-0 38552-2 0 9996
2 47390 53.1487 246.6590 0002351 88.3699 49.3035 15.28879993 5728
Epoch: Apr 17, 2026 • Age: 10 hours

Current Status

Altitude 478.6 km
Velocity 7.63 km/s
Sub-Earth Point 17.28°N, 56.99°W
Launch Date Jan 20, 2021
Age 5.2 years
Type internet

Technical Details

Classification Payload
Mass 260.00 kg
Dry Mass 248.00 kg
Total Mass 260.00 kg
Length 0.20 m
Diameter 2.80 m
Span 9.00 m
Shape Box + pan
Manufacturer SPXS
Bus Type Starlink
Phase Status In Orbit
Owner/State SPXS/US

Most Searched